Back to catalog

KUIPER-00297

AliveCommunicationsLEO
NORAD 68596·PAYLOAD·🇺🇸 United States

Launched Apr 4, 2026 from Cape Canaveral Space Force Station

Loading…

Next Passes (next 24 hours)

TLE

FreshSource: CelesTrak SupGP

Epoch: Sep 14, 2026, 21:46 UTC

1 68596C 26072Z   26257.90733796  .00000522  00000+0  68293-4 0  2574
2 68596  51.8984 151.3842 0001443  98.4299 234.5177 14.79930607    14

Track KUIPER-00297 in real time with AllMySat

Download on the App Store